Retour au catalogue

FREGAT DEB

LostUNKNOWN
NORAD 46016·DEBRIS·🇷🇺 Russia

Lancé Jul 18, 2011 depuis Baikonur Cosmodrome

Loading…

Prochains Passages (prochaines 24 heures)

TLE

PériméSource: Space-Track

Époque: Feb 7, 2023, 11:29 UTC

1 46016U 11037HT  23038.47896513  .00003710  00000-0  10080-1 0  9999
2 46016  51.3300  79.8255 1228379 105.1079 268.8686 11.64306202105377

Suivez FREGAT DEB en temps réel avec AllMySat

Download on the App Store